TimeCST,TemperatureF,Dew PointF,Humidity,Sea Level PressureIn,VisibilityMPH,Wind Direction,Wind SpeedMPH,Gust SpeedMPH,PrecipitationIn,Events,Conditions,WindDirDegrees,DateUTC
12:58 AM,40.1,32.4,74,29.85,10.0,North,16.1,23.0,N/A,,Clear,360,2013-12-14 06:58:00
1:58 AM,39.2,32.0,75,29.90,10.0,North,13.8,20.7,N/A,,Clear,350,2013-12-14 07:58:00
2:58 AM,38.1,31.3,76,29.92,10.0,North,26.5,32.2,N/A,,Clear,350,2013-12-14 08:58:00
3:58 AM,35.8,29.3,77,29.99,10.0,NNW,25.3,31.1,N/A,,Clear,340,2013-12-14 09:58:00
4:58 AM,32.7,28.2,83,30.04,10.0,North,25.3,28.8,N/A,,Clear,350,2013-12-14 10:58:00
5:33 AM,32.0,26.6,80,30.04,10.0,NNW,25.3,-,N/A,,Mostly Cloudy,340,2013-12-14 11:33:00
5:58 AM,31.6,26.4,81,30.08,10.0,NNW,23.0,32.2,N/A,,Overcast,340,2013-12-14 11:58:00
6:03 AM,32.0,26.6,80,30.07,10.0,NNW,20.7,32.2,N/A,,Overcast,340,2013-12-14 12:03:00
6:18 AM,32.0,26.6,80,30.08,10.0,NNW,25.3,32.2,N/A,,Overcast,340,2013-12-14 12:18:00
6:53 AM,32.0,26.6,80,30.11,10.0,North,20.7,27.6,N/A,,Overcast,350,2013-12-14 12:53:00
6:58 AM,31.3,25.5,79,30.14,10.0,North,21.9,26.5,N/A,,Overcast,350,2013-12-14 12:58:00
7:23 AM,30.2,24.8,80,30.15,10.0,North,18.4,-,N/A,,Scattered Clouds,350,2013-12-14 13:23:00
7:58 AM,29.3,23.9,80,30.19,10.0,NNW,13.8,-,N/A,,Clear,340,2013-12-14 13:58:00
8:58 AM,32.0,25.3,76,30.21,10.0,NNW,16.1,23.0,N/A,,Clear,340,2013-12-14 14:58:00
9:58 AM,33.8,25.5,72,30.25,10.0,NNW,23.0,-,N/A,,Clear,340,2013-12-14 15:58:00
10:58 AM,37.2,25.0,61,30.27,10.0,North,17.3,-,N/A,,Clear,360,2013-12-14 16:58:00
11:58 AM,41.0,25.9,55,30.28,10.0,NNW,18.4,-,N/A,,Clear,340,2013-12-14 17:58:00
12:58 PM,43.3,24.6,48,30.28,10.0,NNW,13.8,25.3,N/A,,Clear,330,2013-12-14 18:58:00
1:58 PM,46.8,23.7,40,30.26,10.0,NNW,16.1,-,N/A,,Clear,340,2013-12-14 19:58:00
2:58 PM,48.9,22.1,35,30.26,10.0,NW,17.3,-,N/A,,Clear,320,2013-12-14 20:58:00
3:58 PM,48.9,21.6,34,30.26,10.0,North,12.7,-,N/A,,Clear,350,2013-12-14 21:58:00
4:58 PM,46.9,22.1,38,30.27,10.0,North,8.1,-,N/A,,Clear,360,2013-12-14 22:58:00
5:58 PM,40.6,25.0,54,30.29,10.0,North,4.6,-,N/A,,Clear,350,2013-12-14 23:58:00
6:58 PM,40.8,24.3,52,30.31,10.0,Calm,Calm,-,N/A,,Clear,0,2013-12-15 00:58:00
7:58 PM,31.8,25.9,79,30.33,10.0,SSW,6.9,-,N/A,,Clear,210,2013-12-15 01:58:00
8:58 PM,31.8,24.8,75,30.34,10.0,Calm,Calm,-,N/A,,Clear,0,2013-12-15 02:58:00
9:58 PM,27.9,24.1,86,30.34,10.0,Calm,Calm,-,N/A,,Clear,0,2013-12-15 03:58:00
10:58 PM,30.9,25.7,81,30.33,10.0,NW,1.2,-,N/A,,Clear,320,2013-12-15 04:58:00
11:58 PM,33.8,26.8,75,30.33,10.0,West,8.1,-,N/A,,Clear,280,2013-12-15 05:58:00